Weather History for Soldotna, AK

Change the Weather History Date:

Saturday, November 20, 2010

  Actual Average Record
Temperature  
Mean Temperature 10 °F -  
Max Temperature 19 °F 27 °F 46 °F (1949)
Min Temperature 0 °F 12 °F -17 °F (1993)
Degree Days  
Heating Degree Days 56    
Moisture  
Dew Point 6 °F    
Average Humidity 89    
Maximum Humidity 100    
Minimum Humidity 79    
Precipitation  
Precipitation 0.00 in - - ()
Sea Level Pressure  
Sea Level Pressure 30.39 in    
Wind  
Wind Speed 4 mph (East)    
Max Wind Speed 7 mph    
Max Gust Speed -    
Visibility 10 miles    
Events      
Averages and records for this station are not official NWS values.
T = Trace of Precipitation, MM = Missing Value Source: NWS Daily Summary

Daily Weather History Graph

Daily Weather History Graph

Search for Another Location

Airport:

Trip Planner

Search our weather history database for the weather conditions in past years. The results will help you decide how hot, cold, wet, or windy it might be!

Date:

Astronomy

Nov. 20, 2010 Rise Set
Actual Time 9:18 AM AKST 4:20 PM AKST
Civil Twilight 8:26 AM AKST 5:12 PM AKST
Nautical Twilight 7:32 AM AKST 6:06 PM AKST
Astronomical Twilight 6:42 AM AKST 6:56 PM AKST
Moon 3:19 PM AKST (11/20) 8:39 AM AKST (11/20)
Length of Visible Light 8h 46m
Length of Day
7h 02m
Waxing Gibbous, 99% of the Moon is Illuminated
Nov 20
Waxing Gibbous
Nov 21
Full
Nov 28
Last Quarter
Dec 5
New
Dec 13
First Quarter

Hourly Weather History & Observations

Time (AKST) Temp. Windchill Dew Point Humidity Pressure Visibility Wind Dir Wind Speed Gust Speed Precip Events Conditions
12:56 AM -0.4 °F -10.4 °F -2.2 °F 92% 30.43 in 10.0 mi East 4.6 mph - N/A   Clear
1:56 AM -0.4 °F -8.3 °F -4.0 °F 85% 30.43 in 10.0 mi East 3.5 mph - N/A   Clear
2:56 AM -0.4 °F -10.4 °F -4.0 °F 85% 30.43 in 10.0 mi East 4.6 mph - N/A   Clear
3:56 AM 1.4 °F -8.3 °F -2.2 °F 85% 30.43 in 10.0 mi ENE 4.6 mph - N/A   Clear
4:56 AM 3.2 °F -6.2 °F 1.4 °F 92% 30.43 in 10.0 mi East 4.6 mph - N/A   Mostly Cloudy
5:56 AM 5.0 °F -6.9 °F 1.4 °F 85% 30.42 in 10.0 mi East 6.9 mph - N/A   Overcast
6:56 AM 6.8 °F -2.0 °F 3.2 °F 85% 30.41 in 10.0 mi East 4.6 mph - N/A   Partly Cloudy
7:56 AM 8.6 °F 0.1 °F 5.0 °F 85% 30.41 in 10.0 mi ENE 4.6 mph - N/A   Overcast
8:56 AM 10.4 °F 4.0 °F 8.6 °F 92% 30.40 in 10.0 mi ENE 3.5 mph - N/A   Partly Cloudy
9:56 AM 10.4 °F 4.0 °F 8.6 °F 92% 30.40 in 10.0 mi ENE 3.5 mph - N/A   Clear
10:56 AM 12.2 °F 6.1 °F 8.6 °F 85% 30.40 in 10.0 mi ENE 3.5 mph - N/A   Mostly Cloudy
11:56 AM 14.0 °F 6.5 °F 12.2 °F 93% 30.40 in 10.0 mi East 4.6 mph - N/A   Overcast
12:56 PM 17.6 °F 10.7 °F 14.0 °F 86% 30.40 in 10.0 mi ENE 4.6 mph - N/A   Overcast
1:56 PM 17.6 °F 12.3 °F 15.8 °F 93% 30.39 in 10.0 mi East 3.5 mph - N/A   Overcast
2:56 PM 19.4 °F 14.3 °F 15.8 °F 86% 30.38 in 10.0 mi East 3.5 mph - N/A   Clear
3:56 PM 17.6 °F 12.3 °F 14.0 °F 86% 30.36 in 10.0 mi East 3.5 mph - N/A   Clear
4:56 PM 12.2 °F - 10.4 °F 92% 30.36 in 10.0 mi Calm Calm - N/A   Clear
5:56 PM 10.4 °F - 8.6 °F 92% 30.36 in 10.0 mi Calm Calm - N/A   Clear
6:56 PM 12.2 °F 6.1 °F 12.2 °F 100% 30.35 in 10.0 mi East 3.5 mph - N/A   Mostly Cloudy
7:56 PM 10.4 °F - 10.4 °F 100% 30.35 in 10.0 mi Calm Calm - N/A   Clear
8:56 PM 10.4 °F - 6.8 °F 85% 30.35 in 10.0 mi Calm Calm - N/A   Clear
9:56 PM 8.6 °F 0.1 °F 5.0 °F 85% 30.34 in 10.0 mi ESE 4.6 mph - N/A   Clear
10:56 PM 8.6 °F - 3.2 °F 79% 30.33 in 10.0 mi Calm Calm - N/A   Clear
11:56 PM 6.8 °F - 3.2 °F 85% 30.33 in 10.0 mi Calm Calm - N/A   Clear